Regional Weather Roundup
Issued by NWS

Home | Current Version | Previous Version | Text Only | Print | Product List | Glossary Off
Versions: 1 2 3 4 5 6 7 8 9 10 11 12 13 14 15 16 17 18 19 20 21 22 23 24 25 26 27 28 29 30 31 32 33 34 35 36 37 38 39 40 41 42 43 44 45 46 47 48 49 50

000
ASUS44 KMEG 090300
RWRTN
TENNESSEE HOURLY STATE WEATHER ROUNDUP
NATIONAL WEATHER SERVICE MEMPHIS TN
900 PM CST THU DEC 08 2016

TNZ002-004-019-021-049-052-054-088>092-090400-
WEST TENNESSEE

CITY           SKY/WX    TMP DP  RH WIND       PRES   REMARKS
MEMPHIS INTL   PTCLDY    30  17  58 NW6       30.56S WCI  24
NWS MEMPHIS      N/A     26 N/A N/A MISG        N/A
JACKSON        CLEAR     26  18  71 CALM      30.55S
DYERSBURG      CLEAR     28  21  74 NW3       30.56R
PARIS          CLEAR     23  12  63 CALM      30.53S
$$

TNZ008-025-027-028-033-062-065-066-090400-
NORTH MIDDLE TENNESSEE

CITY           SKY/WX    TMP DP  RH WIND       PRES   REMARKS
NASHVILLE      CLEAR     30  14  51 NW10      30.50R WCI  21
CLARKSVILLE    CLEAR     24  15  68 NW8       30.52R WCI  15
SMYRNA         CLEAR     27  17  66 NW8       30.51R WCI  19
CROSSVILLE     CLEAR     25  13  60 NW6       30.38R WCI  18
$$

TNZ061-075-076-078-094-096-097-090400-
SOUTH MIDDLE TENNESSEE

CITY           SKY/WX    TMP DP  RH WIND       PRES   REMARKS
TULLAHOMA      CLEAR     27  12  54 N9        30.45R WCI  17
SHELBYVILLE    CLEAR     27  18  69 NW5       30.48R WCI  21
$$

TNZ017-018-042-046-047-090400-
NORTHEAST TENNESSEE

CITY           SKY/WX    TMP DP  RH WIND       PRES   REMARKS
TRI CITIES     PTCLDY    31  13  47 W10       30.31R WCI  22
$$

TNZ012-013-036-069-073-074-090400-
CENTRAL EAST TENNESSEE

CITY           SKY/WX    TMP DP  RH WIND       PRES   REMARKS
KNOXVILLE      MOCLDY    34  15  46 NW6       30.38R WCI  29
OAK RIDGE      PTCLDY    32  16  51 VRB3      30.40R
GATLINBURG     CLEAR     30  16  55 NW5       30.37R WCI  25
$$

TNZ083-085-099-090400-
SOUTHEAST TENNESSEE

CITY           SKY/WX    TMP DP  RH WIND       PRES   REMARKS
CHATTANOOGA    PTCLDY    34  17  50 NW15      30.42S WCI  24
$$

SKY/WX REPORTED AS FAIR MEANS FEW OR NO CLOUDS BELOW
12 THOUSAND FEET.




USA.gov is the U.S. government's official web portal to all federal, state and local government web resources and services.